OBJECT AS, 61775

Orbit data source: Space-Track

You're viewing an Uncataloged Satellite

Recently launched and/or uncataloged satellites may have evolving metadata. Metadata may include but not limited to: Owner, Maufacturer, Bus, Motor, and Mission.

OBJECT AS, 61775 is a satellite in SSO that was launched on Mon, 04 Nov 2024 UTC via a SOYUZ-2-1B launch vehicle from the Vostochny Cosmodrome (VOSTO). Unknown objects in Earth's orbit typically refer to objects detected orbiting the Earth but have not yet been identified or cataloged. These objects could be anything from previously untracked satellites, spent rocket stages, debris from satellite collisions, or even natural meteoroids temporarily captured by Earth's gravity.

Loading next visibility...
Identifier
61775, 2024-199AS
Orbit
SSO
Country
Flag of TBDTBD
Related business
None
Manufacturer
Unknown
Mission
Operational Amateur Technology
Bus & Motor
Unknown
Mass
Unknown
Launch date (UTC)
2024-11-04 (2 years ago)
Launch vehicle
SOYUZ-2-1B
Launch site
Vostochny Cosmodrome (VOSTO)
Object type
Unknown
Shape & HBR
Box, 0.2 m
Radar Cross Section
0.100 m², Small (<0.1 m²)

Expand to show TLE details & history
Last TLE update: 11 hours ago

TLE from 11 hours ago
0 OBJECT AS
1 61775U 24199AS  26145.59816784  .00015918  00000-0  35430-3 0  9999
2 61775  97.3025  17.8306 0014916   9.2137 350.9382 15.43596315130682
Epoch: 2026-05-25T14:21Z
TLE epoch observation values (Epoch: 2026-05-25T14:21:21.701Z)
Latitude
-0.00001°
Longitude
-80.69348°
Altitude
428.593 km
Speed
7.66 km/s
True Right ascension
01h 11m 19s
True Declination
0° 00' 00"
Sunlit
Object was in daylight at epoch
Visualization orbit readout
Latitude
Unknown
Longitude
Unknown
Altitude
Unknown
Speed
Unknown
Apparent Right ascension
Unknown
Apparent Declination
Unknown
Sunlit
N/A
Visualization observer readout
Local Sidereal Time
10:49:51
Azimuth
Unknown
Elevation
Unknown
Doppler factor
Unknown
Orbital elements
Apogee altitude
442.594 km
Perigee altitude
422.277 km
Semi-major axis
6,810.573 km
Eccentricity
0.00149
Inclination
97.3025°
RAAN
17.8306°
Arg. of periapsis
9.2137°
True anomaly
350.91123°
Mean anomaly
350.9382°
Eccentric anomaly
350.92472°
Mean motion
3.8616 °/min
Orbital period
93.23 mins
BSTAR
0.0003543
Loading maneuver chart data...
Computing Atmospheric mass density...
Loading historical data...
Loading historical data...
Loading historical data...
Loading historical data...
Loading historical data...
Loading historical data...
Loading historical data...

Documentation

Showing up to 5 results
|